Radiation Dose at Monitoring Post of Fukushima Daini Nuclear Power Station
Date,Time,MP-1(microSv/h),MP-2(microSv/h),MP-3(microSv/h),MP-4(microSv/h),MP-5(microSv/h),MP-6(microSv/h),MP-7(microSv/h),Wind Direction,Wind Velocity(m/s),Rain
2015/08/26,00:00,0.501,0.284,0.508,0.464,0.454,0.229,0.197,east,2.4,No
2015/08/26,00:10,0.505,0.284,0.511,0.468,0.455,0.226,0.196,east,3.1,No
2015/08/26,00:20,0.500,0.285,0.511,0.466,0.451,0.228,0.199,east-northeast,3.0,No
2015/08/26,00:30,0.505,0.284,0.507,0.464,0.457,0.227,0.199,east,4.1,Yes
2015/08/26,00:40,0.503,0.282,0.514,0.469,0.454,0.229,0.198,east-southeast,3.4,Yes
2015/08/26,00:50,0.502,0.284,0.507,0.462,0.454,0.229,0.197,east-southeast,3.3,Yes
2015/08/26,01:00,0.505,0.283,0.512,0.466,0.456,0.227,0.198,east-southeast,4.4,No
2015/08/26,01:10,0.502,0.284,0.510,0.465,0.455,0.230,0.199,east-southeast,3.3,Yes
2015/08/26,01:20,0.504,0.285,0.510,0.467,0.460,0.228,0.199,east-southeast,3.6,Yes
2015/08/26,01:30,0.506,0.284,0.513,0.468,0.452,0.230,0.199,east-southeast,3.6,No
2015/08/26,01:40,0.498,0.285,0.507,0.464,0.455,0.228,0.197,east-southeast,3.2,No
2015/08/26,01:50,0.507,0.282,0.513,0.470,0.454,0.229,0.198,southeast,4.0,No
2015/08/26,02:00,0.501,0.287,0.509,0.465,0.451,0.229,0.199,east-southeast,3.3,No
2015/08/26,02:10,0.504,0.284,0.510,0.466,0.458,0.229,0.198,east-southeast,3.3,No
2015/08/26,02:20,0.506,0.284,0.512,0.469,0.452,0.228,0.200,east-southeast,2.1,Yes
2015/08/26,02:30,0.499,0.284,0.506,0.463,0.454,0.228,0.198,east,4.8,Yes
2015/08/26,02:40,0.506,0.284,0.513,0.467,0.456,0.230,0.199,east,3.6,Yes
2015/08/26,02:50,0.502,0.285,0.508,0.464,0.454,0.228,0.199,east,4.3,No
2015/08/26,03:00,0.506,0.283,0.512,0.467,0.455,0.230,0.199,east,3.7,No
2015/08/26,03:10,0.505,0.286,0.510,0.468,0.451,0.229,0.198,east-northeast,4.1,Yes
2015/08/26,03:20,0.501,0.283,0.509,0.466,0.456,0.227,0.198,east-northeast,4.2,Yes
2015/08/26,03:30,0.506,0.284,0.513,0.466,0.452,0.230,0.198,east-northeast,3.7,No
2015/08/26,03:40,0.501,0.283,0.508,0.463,0.454,0.228,0.197,east-northeast,3.9,No
2015/08/26,03:50,0.505,0.283,0.513,0.468,0.454,0.230,0.198,east-northeast,2.9,No
2015/08/26,04:00,0.504,0.284,0.505,0.463,0.452,0.228,0.198,north-northwest,1.9,Yes
2015/08/26,04:10,0.498,0.282,0.513,0.467,0.456,0.228,0.198,north-northwest,1.6,No
2015/08/26,04:20,0.506,0.284,0.510,0.464,0.449,0.229,0.197,-,CALM,Yes
2015/08/26,04:30,0.500,0.280,0.509,0.466,0.455,0.228,0.198,east-northeast,0.9,No
2015/08/26,04:40,0.506,0.284,0.510,0.466,0.452,0.229,0.198,-,CALM,No
2015/08/26,04:50,0.500,0.282,0.508,0.463,0.453,0.228,0.197,east-northeast,1.1,No
2015/08/26,05:00,0.502,0.284,0.511,0.468,0.454,0.228,0.197,east,3.9,No
2015/08/26,05:10,0.504,0.283,0.506,0.464,0.451,0.228,0.197,east,3.5,No
2015/08/26,05:20,0.501,0.282,0.511,0.467,0.454,0.228,0.198,east-southeast,2.6,No
2015/08/26,05:30,0.506,0.285,0.508,0.463,0.451,0.229,0.197,east,1.9,No
2015/08/26,05:40,0.500,0.282,0.508,0.466,0.456,0.227,0.198,east,1.7,No
2015/08/26,05:50,0.503,0.284,0.512,0.464,0.451,0.227,0.196,east-southeast,3.3,No
2015/08/26,06:00,0.503,0.283,0.507,0.465,0.455,0.226,0.199,east-southeast,4.9,Yes
2015/08/26,06:10,0.501,0.283,0.512,0.466,0.454,0.229,0.198,east-southeast,5.1,Yes
2015/08/26,06:20,0.505,0.283,0.507,0.464,0.451,0.228,0.198,east-southeast,3.8,Yes
2015/08/26,06:30,0.501,0.285,0.514,0.469,0.456,0.231,0.201,east-southeast,5.4,Yes
2015/08/26,06:40,0.504,0.286,0.509,0.464,0.449,0.230,0.200,east-southeast,5.0,Yes
2015/08/26,06:50,0.502,0.283,0.510,0.468,0.456,0.230,0.199,east-southeast,5.4,Yes
2015/08/26,07:00,0.500,0.286,0.510,0.465,0.452,0.231,0.199,east,5.4,Yes
2015/08/26,07:10,0.504,0.283,0.508,0.465,0.456,0.228,0.200,east-southeast,5.5,Yes
2015/08/26,07:20,0.500,0.285,0.509,0.466,0.453,0.229,0.198,east-southeast,6.5,Yes
2015/08/26,07:30,0.505,0.284,0.505,0.462,0.451,0.229,0.200,east-southeast,5.2,Yes
2015/08/26,07:40,0.499,0.286,0.514,0.466,0.454,0.229,0.201,east-southeast,5.5,Yes
2015/08/26,07:50,0.504,0.284,0.507,0.462,0.448,0.227,0.198,east-southeast,5.1,Yes
2015/08/26,08:00,0.503,0.283,0.509,0.465,0.455,0.229,0.200,east,6.1,Yes
2015/08/26,08:10,0.497,0.285,0.510,0.465,0.452,0.230,0.198,east,5.6,Yes
2015/08/26,08:20,0.504,0.282,0.505,0.462,0.452,0.228,0.200,east-southeast,5.5,Yes
2015/08/26,08:30,0.500,0.284,0.512,0.466,0.455,0.229,0.198,east-southeast,6.0,No
2015/08/26,08:40,0.502,0.283,0.507,0.459,0.448,0.227,0.198,east-southeast,6.4,Yes
2015/08/26,08:50,0.503,0.282,0.508,0.468,0.457,0.228,0.200,east-southeast,5.5,Yes
2015/08/26,09:00,0.499,0.286,0.509,0.463,0.452,0.229,0.200,east-southeast,6.0,Yes
2015/08/26,09:10,0.506,0.284,0.506,0.464,0.451,0.230,0.201,east,5.8,Yes
2015/08/26,09:20,0.502,0.288,0.511,0.469,0.454,0.232,0.201,east-southeast,5.1,Yes
2015/08/26,09:30,0.505,0.286,0.505,0.462,0.451,0.229,0.200,east-southeast,4.7,Yes
2015/08/26,09:40,0.503,0.286,0.510,0.467,0.457,0.230,0.201,east-southeast,7.3,Yes
2015/08/26,09:50,0.500,0.285,0.506,0.462,0.450,0.229,0.200,east-southeast,7.3,Yes
2015/08/26,10:00,0.504,0.284,0.504,0.462,0.451,0.232,0.200,east-southeast,6.9,Yes
2015/08/26,10:10,0.497,0.285,0.509,0.464,0.452,0.231,0.201,east-southeast,6.8,Yes
2015/08/26,10:20,0.502,0.283,0.501,0.461,0.452,0.230,0.202,east-southeast,5.9,Yes
2015/08/26,10:30,0.499,0.285,0.508,0.464,0.456,0.230,0.199,east-southeast,5.2,Yes
2015/08/26,10:40,0.500,0.284,0.504,0.459,0.449,0.229,0.201,east-southeast,4.4,Yes
2015/08/26,10:50,0.502,0.282,0.504,0.463,0.454,0.231,0.199,east-southeast,5.6,Yes
2015/08/26,11:00,0.496,0.283,0.506,0.461,0.449,0.226,0.198,southeast,7.0,Yes
2015/08/26,11:10,0.501,0.279,0.500,0.459,0.451,0.229,0.199,east-southeast,7.0,Yes
2015/08/26,11:20,0.499,0.282,0.506,0.464,0.453,0.228,0.198,east-southeast,6.6,Yes
2015/08/26,11:30,0.494,0.282,0.504,0.459,0.448,0.227,0.198,east-southeast,6.9,No
2015/08/26,11:40,0.500,0.280,0.501,0.463,0.451,0.228,0.197,southeast,5.5,No
2015/08/26,11:50,0.495,0.283,0.506,0.463,0.450,0.227,0.196,east-southeast,4.0,No
2015/08/26,12:00,0.493,0.281,0.500,0.456,0.447,0.226,0.198,east-southeast,3.7,No
2015/08/26,12:10,0.501,0.278,0.501,0.464,0.453,0.227,0.197,east-southeast,3.8,No
2015/08/26,12:20,0.496,0.279,0.504,0.461,0.450,0.226,0.195,east-southeast,3.9,Yes
2015/08/26,12:30,0.493,0.281,0.498,0.457,0.445,0.226,0.197,east-southeast,4.3,Yes
2015/08/26,12:40,0.501,0.281,0.502,0.463,0.451,0.227,0.197,east-southeast,5.3,Yes
2015/08/26,12:50,0.497,0.278,0.505,0.462,0.452,0.227,0.195,east-southeast,5.6,No
2015/08/26,13:00,0.494,0.278,0.500,0.458,0.448,0.225,0.195,east-southeast,5.8,No
2015/08/26,13:10,0.492,0.278,0.495,0.454,0.444,0.227,0.196,southeast,5.8,No
2015/08/26,13:20,0.496,0.279,0.501,0.459,0.446,0.226,0.196,southeast,5.1,No
2015/08/26,13:30,0.499,0.282,0.507,0.463,0.452,0.228,0.195,southeast,5.4,No
2015/08/26,13:40,0.498,0.283,0.502,0.459,0.452,0.225,0.195,southeast,5.0,No
2015/08/26,13:50,0.493,0.280,0.500,0.456,0.448,0.226,0.196,southeast,4.6,No
2015/08/26,14:00,0.498,0.280,0.505,0.463,0.449,0.228,0.196,southeast,5.0,No
2015/08/26,14:10,0.501,0.283,0.504,0.463,0.454,0.227,0.195,south-southeast,4.8,No
2015/08/26,14:20,0.497,0.282,0.500,0.460,0.450,0.226,0.196,southeast,4.6,No
2015/08/26,14:30,0.495,0.279,0.507,0.461,0.449,0.227,0.195,south-southeast,5.0,Yes
2015/08/26,14:40,0.503,0.281,0.506,0.465,0.457,0.227,0.196,south-southeast,4.4,Yes
2015/08/26,14:50,0.498,0.283,0.503,0.461,0.452,0.228,0.197,southeast,4.9,Yes
2015/08/26,15:00,0.496,0.282,0.507,0.461,0.451,0.229,0.197,southeast,3.8,Yes
2015/08/26,15:10,0.504,0.283,0.508,0.465,0.456,0.226,0.197,southeast,3.9,Yes
2015/08/26,15:20,0.500,0.283,0.501,0.460,0.453,0.227,0.198,southeast,3.6,Yes
2015/08/26,15:30,0.496,0.281,0.508,0.464,0.452,0.227,0.197,southeast,4.0,Yes
2015/08/26,15:40,0.505,0.285,0.506,0.466,0.456,0.227,0.199,east-southeast,3.3,Yes
2015/08/26,15:50,0.499,0.283,0.504,0.462,0.451,0.229,0.199,east-southeast,2.8,Yes
2015/08/26,16:00,0.501,0.282,0.509,0.468,0.454,0.230,0.200,east,3.4,Yes
2015/08/26,16:10,0.503,0.284,0.504,0.464,0.453,0.230,0.199,east,2.7,Yes
2015/08/26,16:20,0.496,0.282,0.507,0.460,0.449,0.231,0.199,east-northeast,2.0,Yes
2015/08/26,16:30,0.504,0.284,0.508,0.467,0.454,0.230,0.200,northeast,1.2,Yes
2015/08/26,16:40,0.502,0.283,0.502,0.462,0.449,0.229,0.198,northeast,1.5,Yes
2015/08/26,16:50,0.496,0.282,0.510,0.464,0.452,0.228,0.199,east-northeast,1.5,Yes
2015/08/26,17:00,0.502,0.284,0.505,0.463,0.454,0.229,0.199,northeast,1.1,Yes
2015/08/26,17:10,0.499,0.284,0.502,0.460,0.449,0.230,0.198,northeast,1.9,Yes
2015/08/26,17:20,0.500,0.284,0.510,0.465,0.454,0.230,0.199,northeast,1.5,Yes
2015/08/26,17:30,0.502,0.286,0.500,0.461,0.450,0.231,0.198,east-northeast,1.7,Yes
2015/08/26,17:40,0.495,0.283,0.505,0.460,0.451,0.230,0.201,east-northeast,2.7,Yes
2015/08/26,17:50,0.500,0.284,0.504,0.463,0.453,0.231,0.199,east-northeast,2.4,Yes
2015/08/26,18:00,0.502,0.284,0.500,0.459,0.447,0.230,0.200,east-northeast,3.0,Yes
2015/08/26,18:10,0.496,0.283,0.507,0.463,0.455,0.229,0.199,east,4.8,Yes
2015/08/26,18:20,0.501,0.284,0.501,0.460,0.449,0.230,0.200,east,5.1,Yes
2015/08/26,18:30,0.495,0.283,0.500,0.458,0.449,0.228,0.199,east,4.4,Yes
2015/08/26,18:40,0.499,0.284,0.505,0.462,0.451,0.229,0.197,east,3.3,Yes
2015/08/26,18:50,0.498,0.281,0.498,0.457,0.447,0.227,0.199,northeast,3.2,Yes
2015/08/26,19:00,0.493,0.282,0.506,0.460,0.453,0.227,0.198,east-northeast,4.1,Yes
2015/08/26,19:10,0.499,0.280,0.500,0.458,0.447,0.227,0.196,east-northeast,4.4,Yes
2015/08/26,19:20,0.494,0.279,0.499,0.455,0.449,0.226,0.197,east-northeast,5.2,Yes
2015/08/26,19:30,0.497,0.281,0.502,0.459,0.449,0.228,0.196,northeast,4.3,Yes
2015/08/26,19:40,0.495,0.279,0.495,0.454,0.445,0.227,0.195,east-northeast,5.4,Yes
2015/08/26,19:50,0.490,0.282,0.500,0.457,0.448,0.227,0.194,northeast,5.3,Yes
2015/08/26,20:00,0.495,0.279,0.497,0.455,0.445,0.225,0.195,northeast,5.3,Yes
2015/08/26,20:10,0.492,0.280,0.495,0.451,0.449,0.224,0.195,east-northeast,6.7,Yes
2015/08/26,20:20,0.490,0.280,0.496,0.455,0.447,0.226,0.194,east-northeast,5.6,Yes
2015/08/26,20:30,0.490,0.278,0.488,0.446,0.444,0.224,0.193,east-northeast,7.3,Yes
2015/08/26,20:40,0.485,0.280,0.493,0.449,0.446,0.225,0.193,east-northeast,8.6,Yes
2015/08/26,20:50,0.490,0.278,0.491,0.449,0.444,0.224,0.194,northeast,7.1,Yes
2015/08/26,21:00,0.486,0.279,0.490,0.448,0.450,0.224,0.193,east-northeast,7.0,Yes
2015/08/26,21:10,0.488,0.279,0.495,0.452,0.446,0.223,0.194,east-northeast,7.8,Yes
2015/08/26,21:20,0.488,0.277,0.490,0.448,0.445,0.222,0.192,east-northeast,7.1,Yes
2015/08/26,21:30,0.482,0.278,0.493,0.449,0.448,0.223,0.191,northeast,6.1,Yes
2015/08/26,21:40,0.483,0.275,0.486,0.441,0.439,0.222,0.190,northeast,6.6,Yes
2015/08/26,21:50,0.480,0.279,0.490,0.445,0.448,0.221,0.193,northeast,8.4,Yes
2015/08/26,22:00,0.483,0.275,0.490,0.449,0.443,0.221,0.192,northeast,8.9,Yes
2015/08/26,22:10,0.483,0.277,0.486,0.443,0.448,0.221,0.192,northeast,8.6,Yes
2015/08/26,22:20,0.480,0.277,0.493,0.452,0.447,0.222,0.191,northeast,9.1,Yes
2015/08/26,22:30,0.485,0.277,0.490,0.450,0.446,0.220,0.191,northeast,8.0,Yes
2015/08/26,22:40,0.481,0.278,0.493,0.448,0.448,0.222,0.192,northeast,7.2,Yes
2015/08/26,22:50,0.482,0.276,0.493,0.452,0.440,0.220,0.189,north-northeast,8.1,Yes
2015/08/26,23:00,0.480,0.277,0.485,0.439,0.444,0.218,0.189,north,5.8,Yes
2015/08/26,23:10,0.475,0.273,0.485,0.441,0.437,0.217,0.187,north-northeast,7.9,Yes
2015/08/26,23:20,0.479,0.276,0.482,0.438,0.446,0.218,0.191,north-northeast,8.1,Yes
2015/08/26,23:30,0.473,0.275,0.488,0.441,0.443,0.219,0.189,north,4.2,Yes
2015/08/26,23:40,0.475,0.273,0.483,0.439,0.442,0.217,0.188,west-northwest,5.5,Yes
2015/08/26,23:50,0.468,0.274,0.480,0.433,0.440,0.216,0.187,north-northwest,6.8,Yes
